Printer-friendly version

IAU Minor Planet Center

Minor Planet Center

MPEC 2004-T28 : 2004 TB10

The following Minor Planet Electronic Circular may be linked-to from your own Web pages, but must not otherwise be redistributed electronically.


Read MPEC 2004-T27 Read MPEC 2004-T29


M.P.E.C. 2004-T28                                Issued 2004 Oct.  9, 14:33 UT

     The Minor Planet Electronic Circulars contain information on unusual
         minor planets and routine data on comets.  They are published
   on behalf of Commission 20 of the International Astronomical Union by the
          Minor Planet Center, Smithsonian Astrophysical Observatory,
                          Cambridge, MA 02138, U.S.A.

                  Supported in part by the Brinson Foundation
             Prepared using the Tamkin Foundation Computer Network

                              MPC@CFA.HARVARD.EDU
          URL http://cfa-www.harvard.edu/iau/mpc.html  ISSN 1523-6714

                                   2004 TB10

Observations:
     K04T10B* C2004 10 07.27763 00 04 24.46 -02 04 06.3          18.9   ET028704
     K04T10B  C2004 10 07.28833 00 04 20.46 -02 03 21.2          19.4   ET028704
     K04T10B  C2004 10 07.29902 00 04 16.40 -02 02 34.5          19.0   ET028704
     K04T10B  C2004 10 07.30972 00 04 12.40 -02 01 48.1          19.8   ET028704
     K04T10B  C2004 10 07.32039 00 04 08.32 -02 01 01.1          19.8   ET028704
     K04T10B  C2004 10 08.12922 23 59 18.64 -01 03 06.3          18.3 R ET028932
     K04T10B  C2004 10 08.13598 23 59 16.12 -01 02 38.4          18.6 R ET028932
     K04T10B  C2004 10 08.13899 23 59 15.02 -01 02 25.1          18.9 R ET028932
     K04T10B  C2004 10 08.19465 23 58 55.71 -00 58 22.2          19.0   ET028704
     K04T10B  C2004 10 08.20383 23 58 52.28 -00 57 42.0          18.8   ET028704
     K04T10B  C2004 10 08.20598 23 58 51.49 -00 57 33.1          19.0   ET028704
     K04T10B 5C2004 10 08.20631 23 58 51.79 -00 57 31.4          18.5 R ET028673
     K04T10B 5C2004 10 08.20735 23 58 51.38 -00 57 27.1                 ET028673
     K04T10B 5C2004 10 08.21082 23 58 50.09 -00 57 12.1                 ET028673
     K04T10B  C2004 10 08.21451 23 58 48.41 -00 56 55.6          19.4 R ET028854
     K04T10B  C2004 10 08.21481 23 58 48.15 -00 56 54.8          19.5   ET028704
     K04T10B 5C2004 10 08.21661 23 58 47.72 -00 56 47.0                 ET028673
     K04T10B 5C2004 10 08.21939 23 58 46.82 -00 56 35.6                 ET028673
     K04T10B  C2004 10 08.22035 23 58 46.22 -00 56 29.9          19.2 R ET028854
     K04T10B  C2004 10 08.22278 23 58 45.21 -00 56 20.4          18.9   ET028704
     K04T10B 5C2004 10 08.22309 23 58 45.47 -00 56 19.1                 ET028673
     K04T10B  C2004 10 08.22581 23 58 44.05 -00 56 07.6          19.3   ET028704
     K04T10B  C2004 10 08.22619 23 58 44.08 -00 56 05.2          19.0 R ET028854
     K04T10B  C2004 10 08.23604 23 58 40.26 -00 55 23.7          19.9   ET028704
     K04T10B  C2004 10 08.23679 23 58 39.99 -00 55 21.1          19.5   ET028704
     K04T10B  C2004 10 08.24777 23 58 35.89 -00 54 33.5          19.3   ET028704
     K04T10B  C2004 10 08.24839 23 58 35.68 -00 54 31.2          19.3   ET028704
     K04T10B  C2004 10 08.43238 23 57 30.55 -00 40 25.3          18.7 R ET028474
     K04T10B  C2004 10 08.43345 23 57 30.25 -00 40 21.7          18.6 R ET028474
     K04T10B  C2004 10 08.43462 23 57 29.76 -00 40 15.8          18.4 R ET028474
     K04T10B  C2004 10 08.44236 23 57 26.95 -00 39 42.8          18.2 R ET028474
     K04T10B  C2004 10 08.87245 23 54 54.87 -00 10 01.6          18.9 R ET028176
     K04T10B  C2004 10 08.87340 23 54 54.52 -00 09 57.6          18.7 R ET028176
     K04T10B  C2004 10 08.87434 23 54 54.17 -00 09 53.6          18.7 R ET028176
     K04T10B  C2004 10 08.87528 23 54 53.82 -00 09 49.6          18.6 R ET028176
     K04T10B  C2004 10 08.87623 23 54 53.47 -00 09 45.6          18.6 R ET028176
     K04T10B 2C2004 10 08.99737 23 54 11.99 -00 00 17.5                 ET028I05
     K04T10B 2C2004 10 08.99833 23 54 11.59 -00 00 13.5          19.1 R ET028I05
     K04T10B  C2004 10 09.03138 23 53 58.53 +00 01 59.9          18.8 R ET028I77
     K04T10B  C2004 10 09.03240 23 53 58.16 +00 02 04.4          18.6 R ET028I77
     K04T10B  C2004 10 09.03721 23 53 56.39 +00 02 25.1          18.8 R ET028I77
     K04T10B 5C2004 10 09.14120 23 53 20.92 +00 09 09.8          18.8 R ET028673
     K04T10B 5C2004 10 09.14352 23 53 20.19 +00 09 18.2                 ET028673
     K04T10B 5C2004 10 09.14676 23 53 19.05 +00 09 32.0                 ET028673
     K04T10B  C2004 10 09.14948 23 53 17.85 +00 09 45.4          18.7 R ET028G90
     K04T10B 5C2004 10 09.15116 23 53 17.44 +00 09 51.8                 ET028673
     K04T10B  C2004 10 09.15260 23 53 16.72 +00 09 58.6          18.8 R ET028G90
     K04T10B  C2004 10 09.15572 23 53 15.56 +00 10 12.1          18.7 R ET028G90

Observer details:
176 Observatori Astronomic de Consell.  Observers A. Lopez, R. Pacheco,
    J. Forteza.  0.41-m f/4 reflector + CCD.
474 Mount John Observatory, Lake Tekapo.  Observers A. C. Gilmore,
    P. M. Kilmartin.  Measurer P. M. Kilmartin.  0.6-m f/6.4 reflector + CCD.
673 Table Mountain Observatory, Wrightwood.  Observer J. Young.  0.6-m
    reflector + CCD.
704 Lincoln Laboratory ETS, New Mexico.  Observers M. Blythe, F. Shelly,
    M. Bezpalko, R. Huber, L. Manguso, D. Torres, R. Kracke, M. McCleary,
    H. Stange, A. Milner.  Measurers J. Stuart, R. Sayer, J. Evans, J. Kommers.
    1.0-m f/2.15 reflector + CCD.
854 Sabino Canyon Observatory, Tucson.  Observer J. E. McGaha.  0.36-m f/10.0
    Schmidt-Cassegrain + CCD.
932 John J. McCarthy Obs., New Milford.  Observers M. Robson, R. Lambert,
    C. Campbell.  Measurer M. Robson.  0.4-m f/6.5 Schmidt-Cassegrain + CCD.
G90 Three Buttes Observatory, Tucson.  Observer G. R. Jones.  0.40-m
    Ritchey-Chretien + CCD.
I05 Las Campanas Observatory-TIE.  Observers G. Masi, F. Mallia, R. Wilcox.
    Measurer G. Masi.  0.36-m SoTIE reflector + CCD.
I77 CEAMIG-REA Observatory, Belo Horizonte.  Observers C. Jacques, E. Pimentel.
    Measurer C. Jacques.  0.30-m f/3.0 Schmidt-Cassegrain + CCD.

Orbital elements:
2004 TB10                                                            PHA 0.011D
Epoch 2004 Oct. 2.0 TT = JDT 2453280.5                  MPC
M 210.50431              (2000.0)            P               Q
n   0.85152312     Peri.  149.60695     -0.94529397     -0.31489442
a   1.1023980      Node    12.91538     +0.16466001     -0.68606364
e   0.0937318      Incl.   22.41018     +0.28161391     -0.65586446
P   1.16           H   21.4           G   0.15
From 48 observations 2004 Oct. 7-9.

Ephemeris:
2004 TB10                a,e,i = 1.10, 0.09, 22                  q = 0.9991
Date    TT    R. A. (2000) Decl.     Delta      r     Elong.  Phase     V
2004 10 02    00 36.89   -08 16.9    0.196    1.194   168.1    10.0    18.9
2004 10 12    23 37.08   +03 28.8    0.202    1.186   156.6    19.5    19.3
2004 10 22    22 51.02   +13 22.6    0.234    1.177   136.9    35.3    20.1
2004 11 01    22 22.98   +20 15.2    0.281    1.166   122.1    46.2    20.7
2004 11 11    22 09.20   +25 03.6    0.334    1.154   111.3    53.0    21.3
2004 11 21    22 05.42   +28 46.7    0.387    1.141   103.3    57.4    21.7
2004 12 01    22 08.45   +31 59.7    0.436    1.127    97.2    60.3    22.0

Kyle E. Smalley              (C) Copyright 2004 MPC           M.P.E.C. 2004-T28

Read MPEC 2004-T27 Read MPEC 2004-T29


Our Web policy. Index to the CBAT/MPC/ICQ pages.


Valid HTML 4.01!